Other Public Products
Issued by NWS Grand Forks, ND

Home | Current Version | Previous Version | Text Only | Print | Product List | Glossary On
Versions: 1 2 3 4 5 6 7 8 9 10 11 12 13 14 15 16 17 18 19 20 21 22 23 24 25 26 27 28 29 30 31 32 33 34 35 36 37 38 39 40 41 42 43 44 45 46 47 48 49 50
000
FPUS83 KFGF 300831
OPUFGF
PRAIRIE TO PINES WEATHER ROUNDUP
NATIONAL WEATHER SERVICE EASTERN NORTH DAKOTA/GRAND FORKS ND
300 AM CDT SAT MAY 30 2015

 **SATELLITE DATA USED TO AUGMENT SKY COVER AT AUTOMATED STATIONS**
 *****  WEATHER ACROSS EASTERN NORTH DAKOTA  *****

CITY           SKY/WX    TMP DP  RH WIND       PRES   REMARKS
GRAND FORKS    CLEAR     36  26  67 N13       30.35R
GRAND FORKS AF CLEAR     33  25  72 N12       30.35S WCI  24
GRAND CITY NWS   N/A     32 N/A N/A VRB16       N/A  WCI  21
BUXTON           N/A     37  29  75 N12         N/A
DEVILS LAKE    CLEAR     36  23  60 NE12      30.36R
FARGO          CLEAR     38  29  70 N17       30.31R
WAHPETON ARPT  MOSUNNY   37  30  75 N10       30.29R
$$

 *****  WEATHER ACROSS CENTRAL AND WESTERN NORTH DAKOTA  *****

CITY           SKY/WX    TMP DP  RH WIND       PRES   REMARKS
JAMESTOWN      CLEAR     38  29  70 NE15      30.33R
BISMARCK       CLEAR     39  34  82 E8        30.34R
MINOT          CLEAR     36  30  79 E7        30.36R
MINOT AFB      CLEAR     37  37  98 SE5       30.36R
GARRISON         N/A     41  33  73 E12       30.33R
WILLISTON      PTCLDY    43  34  70 E7        30.30S
DICKINSON      CLEAR     34  29  82 S6        30.28R
HETTINGER      CLEAR     34  31  88 CALM      30.30S
$$

 *****  OTHER OBSERVATIONS NORTHEAST NORTH DAKOTA  *****

CITY           SKY/WX    TMP DP  RH WIND       PRES   REMARKS
WALHALLA       FAIR      32  25  74 MISG      30.40R
LANGDON        FAIR      32  23  69 NE13      30.37R WCI  22
CAVALIER       FAIR      34  25  69 N9        30.38S
GRAFTON        FAIR      34  27  75 N10       30.38R
CANDO          FAIR      32  25  74 NE6       30.39R
FORT TOTTEN      N/A     37  26  64 NE7       29.95S
ROLLA          FAIR      32  30  93 NE7       30.38R
RUGBY          NOT AVBL
 ***** THE ABOVE OBSERVATIONS ARE NON NWS ARE NOT QUALITY
        CONTROLLED AND MAY MIS-REPORT RAIN FOR SNOW...
$$

 *****  OTHER OBSERVATIONS SOUTHEAST NORTH DAKOTA *****

CITY           SKY/WX    TMP DP  RH WIND       PRES   REMARKS
COOPERSTOWN    NOT AVBL
VALLEY CITY    FAIR      36  28  75 NE15      30.33R
OAKES            N/A     39  32  75 N14       30.31R
GWINNER        NOT AVBL
SHEYENNE NWR     N/A     39  29  67 N14       29.95S
BUFFALO        NOT AVBL
WYNDMERE         N/A     39  30  70 N12         N/A
 ***** THE ABOVE OBSERVATIONS ARE NON NWS ARE NOT QUALITY
       CONTROLLED AND MAY MIS-REPORT RAIN FOR SNOW...
$$

  *****  WEATHER ACROSS NORTHERN MINNESOTA  *****

CITY           SKY/WX    TMP DP  RH WIND       PRES   REMARKS
FLAG ISLAND    CLOUDY    37  28  70 N21       30.31S
WARROAD        CLEAR     32  28  86 NW8       30.32S WCI  25
ROSEAU         CLEAR     34  28  80 N9        30.33R
HALLOCK        CLEAR     32  25  74 N6        30.37R
THF RVR FALLS  CLEAR     36  28  75 N9        30.32R
HALSTAD          N/A     35  25  65 N13         N/A
FOSSTON        CLEAR     32  28  86 N12       30.29R WCI  23
BAUDETTE       CLOUDY    38  28  67 N14       30.27R
WASKISH        PTCLDY    37  34  87 NW5       30.27R
CROOKSTON      CLEAR     36  28  75 N12       30.34R
$$
  *****  WEATHER ACROSS CENTRAL AND WEST MINNESOTA  *****

CITY           SKY/WX    TMP DP  RH WIND       PRES   REMARKS
BEMIDJI        PTCLDY    37  33  87 NW6       30.26R
PARK RAPIDS    PTCLDY    41  33  73 N15       30.23R
WADENA         PTCLDY    39  34  81 N9        30.22S
DETROIT LAKES  CLEAR     37  34  87 N7        30.27R
MOORHEAD       CLEAR     37  30  75 N15       30.31R
FERGUS FALLS   PTCLDY    39  32  75 N10       30.27R
ELBOW LAKE     FAIR      41  36  80 N10       30.24R
MORRIS MN      PTCLDY    45  37  76 N13       30.21S
STAPLES        PTCLDY    41  37  87 N8        30.21R
WHEATON        MOCLDY    39  32  75 N12G18    30.28R
$$
  *****  WEATHER ELSEWHERE ACROSS MINNESOTA  *****

CITY           SKY/WX    TMP DP  RH WIND       PRES   REMARKS
DULUTH         PTCLDY    45  38  76 N8        30.12S
INTRNTL FALLS  CLOUDY    38  30  73 N16G24    30.24R
ELY            NOT AVBL
CLOQUET        CLEAR     43  36  75 NW8       30.14S
BRAINERD       PTCLDY    45  37  73 N12       30.19R
HIBBING        CLEAR     42  35  76 N13       30.17R
ALEXANDRIA     PTCLDY    45  36  70 N14G22    30.21R
SAINT CLOUD    CLEAR     46  39  76 N7        30.15R
MINNEAPOLIS    MOCLDY    51  42  71 N16G25    30.10R
$$

  *****  WEATHER ACROSS SOUTH DAKOTA  *****

CITY           SKY/WX    TMP DP  RH WIND       PRES   REMARKS
SIOUX FALLS    PTCLDY    47  40  76 N14G22    30.18R
BROOKINGS      PTCLDY    43  36  75 N15G21    30.21S
WATERTOWN      PTCLDY    42  35  76 N16       30.23R
HURON          PTCLDY    41  38  89 N8        30.26R
SISSETON         N/A     42  36  79 NE14      30.27R
ABERDEEN       PTCLDY    43  35  73 N10       30.30R
MITCHELL       PTCLDY    44  40  85 NW10      30.25R
PIERRE         CLEAR     39  36  89 N7        30.28R
MOBRIDGE       CLEAR     42  36  79 E6        30.28R
RAPID CITY     CLEAR     38  35  89 CALM      30.30S
$$

  *****  SOME WEATHER IN NEARBY STATES *****

CITY           SKY/WX    TMP DP  RH WIND       PRES   REMARKS
GLASGOW MT     PTCLDY    46  33  60 E13       30.21F
GREAT FALLS MT PTCLDY    50  46  86 S9        30.05R
CHEYENNE WY    FOG       41  39  93 SW8       30.31S VSB 1
SCOTTSBLUFF NE CLOUDY    47  45  93 E8        30.30S
OMAHA NE       CLOUDY    51  48  89 N20G30    30.09R
DES MOINES IA  CLOUDY    59  55  87 N12       29.98R
DAVENPORT IA   CLOUDY    66  62  87 S8        29.95S
CHICAGO IL     CLOUDY    69  64  84 SW5       29.93S
EAU CLAIRE WI  CLOUDY    53  49  86 N12       30.02R
LA CROSSE WI   CLOUDY    61  58  90 N13       29.95R
$$

  *****  SOME NATIONAL WEATHER *****

CITY           SKY/WX    TMP DP  RH WIND       PRES   REMARKS
LA GUARDIA NY  CLEAR     66  61  84 S6        30.19S
RALEIGH NC     PTCLDY    69  65  86 CALM      30.19S
ATLANTA GA     PTCLDY    69  60  73 CALM      30.14S
NEW ORLEANS LA PTCLDY    76  70  82 CALM      30.03F
OKLAHOMA CITY  PTCLDY    66  63  90 CALM      29.99F
ALBUQUERQUE NM PTCLDY    62  46  55 E30G38    30.20S
SALT LAKE CITY MOCLDY    59  44  57 SE6       30.12S
LOS ANGELES CA FOG       57  55  94 CALM      29.93F VSB 1/2
BOISE ID       PTCLDY    71  41  33 SE10      29.93F
SEATTLE WA     MOCLDY    55  49  80 S7        29.95R
$$

*** WEATHER ACROSS MANITOBA...SASKATCHEWAN AND ONTARIO ***
                ***ONTARIO***

CITY           SKY/WX    TMP DP  RH WIND       PRES   REMARKS
GERALDTON      MOCLDY    39  39 100 NW6       30.04R
THUNDER BAY    LGT RAIN  48  43  81 N13G20    30.10R
SIOUX LOOKOUT  CLOUDY    32  23  69 N13G21    30.26R WCI  22
TORONTO        PTCLDY    63  55  77 S7        29.96F
BIG TROUT LK   LGT SNOW  27  27 100 N9        30.21R VSB 1   WCI  17
PICKLE LAKE    NOT AVBL
DRYDEN         CLOUDY    32  23  69 N10G21    30.27R WCI  24
KENORA         CLOUDY    34  23  64 N10G20    30.30S
$$
                *** MANITOBA***

CITY           SKY/WX    TMP DP  RH WIND       PRES   REMARKS
BRANDON        CLEAR     30  21  69 E2        30.40S
DAUPHIN        CLEAR     28  27  93 NW3       30.42S
ISLAND LAKE    PTCLDY    28  25  86 N8        30.38S WCI  20
PILOT MOUND      N/A     30  25  80 NE6         N/A  WCI  24
THE PAS        CLEAR     27  23  86 SE2       30.42S
THOMPSON       PTCLDY    30  25  80 VRB2      30.39S
WINNIPEG       PTCLDY    32  23  69 N14       30.40R WCI  22
LYNN LAKE      CLEAR     27  23  86 SW6       30.34F WCI  20
CHURCHILL      CLOUDY    30  23  74 SW7       30.31F WCI  23
GILLAM         MOCLDY    27  23  86 SW7       30.37F WCI  19
$$
                ***SASKATCHEWAN***

CITY           SKY/WX    TMP DP  RH WIND       PRES   REMARKS
ESTEVAN        PTCLDY    37  30  75 E15G21    30.35R
KINDERSLEY     CLOUDY    46  25  42 SE16G22   30.24S
LLOYDMINSTER   CLOUDY    46  27  46 SE10      30.23F
PRINCE ALBERT  MOCLDY    36  25  64 E6        30.36R
REGINA         PTCLDY    39  27  60 E12       30.34S


USA.gov is the U.S. government's official web portal to all federal, state and local government web resources and services.